• In Hungary
  • List of Countries
  • For 7 days
  • Water Temperature
  • Satellite Maps
  • Weather Map
  • News
  • Weather Widgets
  • user-avatar
    Login

    Hourly Weather Barabashivka

    Today, 24 June, Sunday

    Time Temperature Precipitation Wind Pressure Humidity
    00:00 +20°C° 0.7 mm 2 mps 742 mmHg 93%
    01:00 +20°C° 0.7 mm 2 mps 742 mmHg 93%
    02:00 +20°C° 0 mm 2 mps 742 mmHg 93%
    03:00 +19°C° 0.9 mm 3 mps 742 mmHg 92%
    04:00 +18°C° 0.9 mm 4 mps 743 mmHg 92%
    05:00 +18°C° 0.9 mm 4 mps 743 mmHg 92%
    06:00 +16°C° 0.3 mm 5 mps 743 mmHg 90%
    07:00 +16°C° 0.3 mm 5 mps 744 mmHg 88%
    08:00 +17°C° 0 mm 5 mps 744 mmHg 85%
    09:00 +19°C° 0 mm 5 mps 744 mmHg 78%
    10:00 +20°C° 0 mm 5 mps 745 mmHg 72%
    11:00 +21°C° 0 mm 6 mps 745 mmHg 65%
    12:00 +22°C° 0 mm 5 mps 746 mmHg 62%
    13:00 +22°C° 0 mm 5 mps 746 mmHg 59%
    14:00 +23°C° 0 mm 5 mps 746 mmHg 56%
    15:00 +23°C° 0 mm 5 mps 746 mmHg 57%
    16:00 +22°C° 0 mm 4 mps 747 mmHg 58%
    17:00 +22°C° 0 mm 4 mps 747 mmHg 59%
    18:00 +20°C° 0 mm 3 mps 747 mmHg 65%
    19:00 +19°C° 0 mm 3 mps 748 mmHg 71%
    20:00 +17°C° 0 mm 2 mps 748 mmHg 76%
    21:00 +16°C° 0 mm 2 mps 748 mmHg 79%
    22:00 +16°C° 0 mm 2 mps 749 mmHg 81%
    23:00 +15°C° 0 mm 2 mps 749 mmHg 84%

    Tomorrow, 25 June, Monday

    Time Temperature Precipitation Wind Pressure Humidity
    00:00 +14°C° 0 mm 2 mps 749 mmHg 85%
    01:00 +14°C° 0 mm 1 mps 749 mmHg 87%
    02:00 +13°C° 0 mm 1 mps 750 mmHg 88%
    03:00 +14°C° 0 mm 1 mps 750 mmHg 87%
    04:00 +14°C° 0 mm 1 mps 750 mmHg 85%
    05:00 +15°C° 0 mm 1 mps 750 mmHg 84%
    06:00 +16°C° 0 mm 1 mps 750 mmHg 77%
    07:00 +19°C° 0 mm 1 mps 751 mmHg 71%
    08:00 +20°C° 0 mm 1 mps 751 mmHg 64%
    09:00 +22°C° 0 mm 1 mps 751 mmHg 59%
    10:00 +23°C° 0 mm 1 mps 751 mmHg 55%
    11:00 +24°C° 0 mm 1 mps 751 mmHg 50%
    12:00 +24°C° 0 mm 1 mps 751 mmHg 48%
    13:00 +25°C° 0 mm 1 mps 751 mmHg 46%
    14:00 +25°C° 0 mm 1 mps 751 mmHg 44%
    15:00 +25°C° 0 mm 2 mps 750 mmHg 45%
    16:00 +25°C° 0 mm 2 mps 750 mmHg 46%
    17:00 +25°C° 0 mm 2 mps 750 mmHg 48%
    18:00 +23°C° 0 mm 2 mps 750 mmHg 53%
    19:00 +20°C° 0 mm 2 mps 751 mmHg 59%
    20:00 +19°C° 0 mm 2 mps 751 mmHg 65%
    21:00 +18°C° 0 mm 2 mps 751 mmHg 67%
    22:00 +17°C° 0 mm 3 mps 751 mmHg 70%
    23:00 +16°C° 0 mm 3 mps 751 mmHg 72%

    Day after tomorrow, 26 June, Tuesday

    Time Temperature Precipitation Wind Pressure Humidity
    00:00 +16°C° 0 mm 3 mps 751 mmHg 74%
    01:00 +14°C° 0 mm 3 mps 751 mmHg 76%
    02:00 +14°C° 0 mm 3 mps 751 mmHg 78%
    03:00 +14°C° 0 mm 3 mps 750 mmHg 78%
    04:00 +14°C° 0 mm 3 mps 750 mmHg 78%
    05:00 +16°C° 0 mm 3 mps 750 mmHg 79%
    06:00 +18°C° 0 mm 4 mps 750 mmHg 73%
    07:00 +20°C° 0 mm 5 mps 750 mmHg 68%
    08:00 +22°C° 0 mm 5 mps 750 mmHg 62%
    09:00 +23°C° 0 mm 5 mps 750 mmHg 60%
    10:00 +25°C° 0 mm 5 mps 750 mmHg 57%
    11:00 +26°C° 0 mm 5 mps 750 mmHg 55%
    12:00 +27°C° 0 mm 5 mps 749 mmHg 55%
    13:00 +28°C° 0 mm 5 mps 749 mmHg 54%
    14:00 +28°C° 0 mm 6 mps 749 mmHg 54%
    15:00 +28°C° 0 mm 5 mps 748 mmHg 57%
    16:00 +28°C° 0 mm 5 mps 748 mmHg 59%
    17:00 +28°C° 0 mm 5 mps 748 mmHg 61%
    18:00 +26°C° 0 mm 5 mps 748 mmHg 66%
    19:00 +25°C° 0 mm 5 mps 748 mmHg 71%
    20:00 +22°C° 0 mm 4 mps 748 mmHg 75%
    21:00 +22°C° 0.1 mm 4 mps 748 mmHg 78%
    22:00 +21°C° 0.1 mm 4 mps 747 mmHg 81%
    23:00 +20°C° 0.1 mm 4 mps 747 mmHg 85%

    27 June, Wednesday

    Time Temperature Precipitation Wind Pressure Humidity
    00:00 +20°C° 0.5 mm 4 mps 747 mmHg 86%
    01:00 +20°C° 0.5 mm 4 mps 747 mmHg 86%
    02:00 +20°C° 0.5 mm 4 mps 746 mmHg 87%
    03:00 +20°C° 0.3 mm 4 mps 746 mmHg 86%
    04:00 +20°C° 0.3 mm 4 mps 746 mmHg 84%
    05:00 +20°C° 0.3 mm 5 mps 746 mmHg 83%
    06:00 +22°C° 0.1 mm 5 mps 746 mmHg 78%
    07:00 +23°C° 0.1 mm 6 mps 746 mmHg 73%
    08:00 +26°C° 0.1 mm 6 mps 746 mmHg 68%
    09:00 +26°C° 0 mm 6 mps 746 mmHg 67%
    10:00 +27°C° 0 mm 6 mps 746 mmHg 67%
    11:00 +27°C° 0 mm 6 mps 745 mmHg 66%
    12:00 +29°C° 0 mm 6 mps 745 mmHg 60%
    13:00 +32°C° 0 mm 6 mps 745 mmHg 54%
    14:00 +34°C° 0 mm 6 mps 745 mmHg 48%
    15:00 +34°C° 0 mm 5 mps 745 mmHg 49%
    16:00 +34°C° 0 mm 5 mps 744 mmHg 49%
    17:00 +35°C° 0 mm 4 mps 744 mmHg 50%
    18:00 +33°C° 0 mm 4 mps 744 mmHg 52%
    19:00 +30°C° 0 mm 5 mps 744 mmHg 55%
    20:00 +28°C° 0 mm 5 mps 744 mmHg 57%
    21:00 +28°C° 0 mm 6 mps 744 mmHg 56%
    22:00 +28°C° 0 mm 6 mps 744 mmHg 55%
    23:00 +28°C° 0 mm 7 mps 745 mmHg 55%

    28 June, Thursday

    Time Temperature Precipitation Wind Pressure Humidity
    00:00 +28°C° 0 mm 7 mps 745 mmHg 56%
    01:00 +27°C° 0 mm 6 mps 745 mmHg 57%
    02:00 +27°C° 0 mm 6 mps 745 mmHg 58%
    03:00 +26°C° 0 mm 6 mps 745 mmHg 61%
    04:00 +25°C° 0 mm 5 mps 745 mmHg 65%
    05:00 +25°C° 0 mm 5 mps 745 mmHg 69%
    06:00 +26°C° 0 mm 5 mps 745 mmHg 65%
    07:00 +28°C° 0 mm 5 mps 745 mmHg 62%
    08:00 +29°C° 0 mm 6 mps 745 mmHg 58%
    09:00 +32°C° 0 mm 6 mps 745 mmHg 54%
    10:00 +33°C° 0 mm 6 mps 745 mmHg 49%
    11:00 +35°C° 0 mm 6 mps 745 mmHg 45%
    12:00 +36°C° 0 mm 6 mps 745 mmHg 40%
    13:00 +38°C° 0 mm 6 mps 744 mmHg 35%
    14:00 +39°C° 0 mm 6 mps 744 mmHg 31%
    15:00 +39°C° 0 mm 5 mps 744 mmHg 34%
    16:00 +37°C° 0 mm 4 mps 744 mmHg 38%
    17:00 +37°C° 0 mm 3 mps 743 mmHg 42%
    18:00 +35°C° 0 mm 4 mps 743 mmHg 44%
    19:00 +33°C° 0 mm 4 mps 743 mmHg 47%
    20:00 +30°C° 0 mm 4 mps 743 mmHg 50%
    21:00 +29°C° 0 mm 4 mps 743 mmHg 49%
    22:00 +29°C° 0 mm 5 mps 743 mmHg 48%
    23:00 +29°C° 0 mm 5 mps 743 mmHg 47%

    29 June, Friday

    Time Temperature Precipitation Wind Pressure Humidity
    00:00 +28°C° 0 mm 5 mps 743 mmHg 46%
    01:00 +28°C° 0 mm 5 mps 743 mmHg 45%
    02:00 +28°C° 0 mm 5 mps 743 mmHg 44%
    03:00 +27°C° 0 mm 5 mps 743 mmHg 49%
    04:00 +26°C° 0 mm 5 mps 743 mmHg 54%
    05:00 +25°C° 0 mm 4 mps 743 mmHg 59%
    06:00 +27°C° 0 mm 5 mps 743 mmHg 56%
    07:00 +29°C° 0 mm 5 mps 743 mmHg 52%
    08:00 +32°C° 0 mm 6 mps 743 mmHg 49%
    09:00 +33°C° 0 mm 6 mps 743 mmHg 45%
    10:00 +34°C° 0 mm 6 mps 743 mmHg 41%
    11:00 +36°C° 0 mm 6 mps 742 mmHg 37%
    12:00 +36°C° 0 mm 6 mps 742 mmHg 36%
    13:00 +38°C° 0 mm 6 mps 742 mmHg 35%
    14:00 +38°C° 0 mm 6 mps 741 mmHg 34%
    15:00 +36°C° 0 mm 5 mps 741 mmHg 38%
    16:00 +36°C° 0 mm 4 mps 741 mmHg 41%
    17:00 +35°C° 0 mm 3 mps 740 mmHg 44%
    18:00 +33°C° 0 mm 3 mps 740 mmHg 47%
    19:00 +31°C° 0 mm 3 mps 740 mmHg 50%
    20:00 +29°C° 0 mm 3 mps 740 mmHg 53%
    21:00 +28°C° 0.3 mm 3 mps 741 mmHg 59%
    22:00 +26°C° 0.3 mm 3 mps 741 mmHg 65%
    23:00 +25°C° 0.3 mm 3 mps 741 mmHg 71%
    Show more